Regional Weather Roundup
Issued by NWS

Home | Current Version | Previous Version | Text Only | Print | Product List | Glossary Off
Versions: 1 2 3 4 5 6 7 8 9 10 11 12 13 14 15 16 17 18 19 20 21 22 23 24 25 26 27 28 29 30 31 32 33 34 35 36 37 38 39 40 41 42 43 44 45 46 47 48 49 50

000
ASUS43 KMPX 020010
RWRMN
WEATHER ROUNDUP FOR MINNESOTA
NATIONAL WEATHER SERVICE TWIN CITIES/CHANHASSEN MN
700 PM CDT FRI AUG 01 2014


NOTE: "FAIR" INDICATES FEW OR NO CLOUDS BELOW 12,000 FEET WITH NO
SIGNIFICANT WEATHER AND/OR OBSTRUCTIONS TO VISIBILITY. N/A MEANS
CURRENT SKY AND/OR WEATHER CONDITIONS ARE NOT AVAILABLE.

MNZ060>063-068>070-020100-
   Twin Cities Metro

CITY           SKY/WX    TMP DP  RH WIND       PRES   REMARKS
TWIN CITIES    PTSUNNY   84  59  42 W10       30.03S
6HR MIN TEMP:  81; 6HR MAX TEMP:  87;

ST PAUL        PTSUNNY   79  60  52 SE6       30.03S
CRYSTAL        MOSUNNY   83  58  42 W6        30.03S
BLAINE         PTSUNNY   82  61  47 CALM      30.04S
LAKEVILLE      SUNNY     79  61  53 W3        30.04F
EDEN PRAIRIE   MOSUNNY   78  60  53 W3        30.03F
6HR MIN TEMP:  78; 6HR MAX TEMP:  86;

SOUTH ST PAUL  MOSUNNY   81  59  47 CALM      30.03S
LAKE ELMO      FAIR      81  63  54 CALM      30.05S
$$
MNZ001>005-007-008-013>017-022>024-027-028-020100-
   Northwest Minnesota

CITY           SKY/WX    TMP DP  RH WIND       PRES   REMARKS
BEMIDJI        SUNNY     76  56  49 N5        30.07S
HALLOCK        SUNNY     81  59  47 CALM      30.04F
ROSEAU         SUNNY     79  61  53 CALM      30.06S
WARROAD        SUNNY     77  61  57 E3        30.07S
THIEF RVR FALL SUNNY     79  54  41 NE6       30.07F
CROOKSTON      MOSUNNY   79  61  53 NW3       30.07S
FOSSTON        SUNNY     75  63  64 CALM      30.09S HAZE
DETROIT LAKES  MOSUNNY   77  55  47 CALM      30.09S
MOORHEAD       MOSUNNY   79  61  53 N6        30.06F
PARK RAPIDS    SUNNY     79  54  41 N9        30.07S
$$
MNZ006-009>011-018-025>026-020100-
   North Central Minnesota

CITY           SKY/WX    TMP DP  RH WIND       PRES   REMARKS
BAUDETTE       SUNNY     74  52  46 NW3       30.08S
FLAG ISLAND    SUNNY     75  52  43 S3        30.05S
INTL FALLS     SUNNY     77  47  34 E3        30.06S
6HR MIN TEMP:  75; 6HR MAX TEMP:  79;

WASKISH        SUNNY     77  52  41 CALM      30.07S
BIG FORK       SUNNY     77  55  47 NE2       30.07R
LONGVILLE      SUNNY     75  64  69 CALM      30.06S
GRAND RAPIDS   MOSUNNY   73  55  53 NW7       30.06S
CRANE LAKE     SUNNY     73  46  38 CALM      30.08R
ORR            SUNNY     75  48  38 CALM      30.05S
COOK           SUNNY     75  52  43 N5        30.07S
$$
MNZ012-019>021-037-020100-
   Northeast Minnesota

CITY           SKY/WX    TMP DP  RH WIND       PRES   REMARKS
DULUTH         MOSUNNY   72  55  55 SE7       30.07S
6HR MIN TEMP:  67; 6HR MAX TEMP:  77; 6HR PCP:  0.01;

ELY            SUNNY     75  46  35 NW3       30.07S
HIBBING        SUNNY     79  57  46 N3        30.06R
EVELETH        PTSUNNY   77  55  47 NE6       30.07S
DULUTH HARBOR  MOSUNNY   63  55  77 E7        30.07S
TWO HARBORS    MOSUNNY   68  52  56 CALM      30.06S
SILVER BAY     SUNNY     66  55  68 NE5       30.07R
GRAND MARAIS     N/A     59  52  77 E3        30.08
G MARAIS ARPRT SUNNY     63  50  63 CALM      30.11S
$$
MNZ029>031-032-039>041-046>048-054>057-064-020100-
   West Central Minnesota

CITY           SKY/WX    TMP DP  RH WIND       PRES   REMARKS
FERGUS FALLS   MOSUNNY   77  57  50 CALM      30.06R
WHEATON        MOSUNNY   79  61  53 W3        30.07S
MORRIS         MOSUNNY   79  64  61 N3        30.06F
ALEXANDRIA     SUNNY     79  60  52 NW7       30.08S
ELBOW LAKE     FAIR      78  61  55 N6        30.06S
WADENA         SUNNY     77  61  57 N3        30.07S
GLENWOOD       SUNNY     79  59  50 NW6       30.08S
APPLETON       MOSUNNY   82  57  42 NW3       30.05S
BENSON         MOSUNNY   81  63  54 NE3       30.06S
ORTONVILLE     MOSUNNY   82  57  42 N5        30.06F
MADISON        SUNNY     82  61  47 CALM      30.06S
WILLMAR        FAIR      82  55  39 NW6       30.07S
$$
MNZ033>034-036-042>043-049>051-058-059-020100-
   Central Minnesota

CITY           SKY/WX    TMP DP  RH WIND       PRES   REMARKS
ST CLOUD       MOSUNNY   81  56  42 CALM      30.05S
6HR MIN TEMP:  78; 6HR MAX TEMP:  89;

SAUK CENTRE    FAIR      79  60  50 NW6       30.07S
PAYNESVILLE    HVY RAIN  68  65  92 CALM      30.07S
AITKIN         SUNNY     79  61  53 CALM      30.05R
PINE RIVER     SUNNY     79  57  47 N5        30.09S
BRAINERD       SUNNY     78  58  49 CALM      30.06S
STAPLES        SUNNY     79  57  47 W6        30.06S
LONG PRAIRIE   FAIR      77  59  53 W6        30.07S
LITTLE FALLS   MOSUNNY   72  57  60 CALM      30.06F
LITCHFIELD     MOSUNNY   79  63  57 CALM      30.07S
BUFFALO        MOSUNNY   78  60  53 CALM      30.06S
MAPLE LAKE     MOSUNNY   76  62  61 CALM      30.06S
$$
MNZ037-044-045-052-053-020100-
   East Central Minnesota

CITY           SKY/WX    TMP DP  RH WIND       PRES   REMARKS
PRINCETON      MOSUNNY   79  63  57 S3        30.05S
MORA           SUNNY     75  59  57 CALM      30.07S
CAMBRIDGE      MOSUNNY   81  64  57 CALM      30.03S
RUSH CITY      MOSUNNY   79  60  52 CALM      30.05S
MOOSE LAKE     MOSUNNY   75  59  57 CALM      30.04S
HINCKLEY       FAIR      77  63  61 CALM      30.06S
CLOQUET        MOSUNNY   72  55  56 E6        30.07F
MCGREGOR       SUNNY     79  59  50 NW3       30.06R
$$
MNZ071>073-080-081-089-090-097-098-020100-
   Southwest Minnesota

CITY           SKY/WX    TMP DP  RH WIND       PRES   REMARKS
MONTEVIDEO     MOSUNNY   82  63  51 CALM      30.07S
GRANITE FALLS  MOSUNNY   79  60  51 CALM      30.07F
CANBY          SUNNY     81  59  45 CALM      30.07F
MARSHALL       SUNNY     81  55  41 N3        30.06F
REDWOOD FALLS  SUNNY     82  60  47 N3        30.06S
OLIVIA         MOSUNNY   79  59  50 NW5       30.06S
PIPESTONE      SUNNY     79  55  44 CALM      30.09F
WINDOM         SUNNY     79  55  44 CALM      30.09S
WORTHINGTON    SUNNY     79  55  44 NE3       30.11S
JACKSON        SUNNY     79  55  44 E3        30.09F
TRACY          SUNNY     81  58  46 CALM      30.08F
SLAYTON        SUNNY     79  55  43 CALM      30.10F
$$
MNZ065>067-074>077-082>085-091>093-020100-
   South Central Minnesota

CITY           SKY/WX    TMP DP  RH WIND       PRES   REMARKS
MANKATO        MOSUNNY   81  57  44 W5        30.06S
NEW ULM        MOSUNNY   79  61  53 W3        30.06S
ST JAMES       MOSUNNY   82  61  47 CALM      30.07F
FAIRMONT       SUNNY     81  52  36 MISG      30.08S
GLENCOE        MOSUNNY   81  57  43 SW3       30.05S
FARIBAULT      SUNNY     82  55  39 CALM      30.06S
OWATONNA       SUNNY     79  61  53 CALM      30.07S
WASECA         SUNNY     77  59  53 CALM      30.08S
ALBERT LEA     SUNNY     79  57  47 CALM      30.07S
$$
MNZ078>079-086>088-094>096-020100-
   Southeast Minnesota

CITY           SKY/WX    TMP DP  RH WIND       PRES   REMARKS
ROCHESTER      SUNNY     77  62  59 W3        30.08S
6HR MIN TEMP:  77; 6HR MAX TEMP:  82;

RED WING       SUNNY     82  57  42 CALM      30.03S
STANTON        SUNNY     80  61  53 SW5       30.03F
DODGE CENTER   SUNNY     79  57  47 W5        30.07S
WINONA         MOSUNNY   79  59  50 CALM      30.05S
AUSTIN         SUNNY     77  57  50 NW3       30.07S
PRESTON        MOSUNNY   76  65  67 NW3       30.08S
$$
ABBREVIATIONS USED IN REMARKS
   TC - TEMPERATURES IN CELSIUS
  WCI - WIND CHILL INDEX
   HX - HEAT INDEX
  VSB - VISIBILITY
$$


USA.gov is the U.S. government's official web portal to all federal, state and local government web resources and services.